TimeAKDT,TemperatureF,Dew PointF,Humidity,Sea Level PressureIn,VisibilityMPH,Wind Direction,Wind SpeedMPH,Gust SpeedMPH,PrecipitationIn,Events,Conditions,WindDirDegrees,DateUTC
12:53 AM,46.9,37.0,68,30.19,10.0,WSW,3.5,-,N/A,,Partly Cloudy,250,2013-06-11 08:53:00
1:53 AM,42.1,36.0,79,30.20,10.0,SW,3.5,-,N/A,,Mostly Cloudy,230,2013-06-11 09:53:00
2:53 AM,39.0,34.0,82,30.21,10.0,Calm,Calm,-,N/A,,Mostly Cloudy,0,2013-06-11 10:53:00
3:53 AM,44.1,37.0,76,30.22,10.0,Calm,Calm,-,N/A,,Overcast,0,2013-06-11 11:53:00
4:19 AM,44.6,39.2,81,30.22,10.0,West,6.9,-,0.00,Rain,Light Rain,280,2013-06-11 12:19:00
4:31 AM,44.6,39.2,81,30.22,10.0,West,6.9,-,0.00,Rain,Light Rain,280,2013-06-11 12:31:00
4:53 AM,44.1,39.9,85,30.25,5.0,WNW,6.9,-,0.02,Rain,Light Rain,290,2013-06-11 12:53:00
5:53 AM,44.1,39.9,85,30.23,10.0,Calm,Calm,-,0.01,,Mostly Cloudy,0,2013-06-11 13:53:00
6:53 AM,46.0,39.0,76,30.23,10.0,Calm,Calm,-,N/A,,Clear,0,2013-06-11 14:53:00
7:53 AM,48.9,39.9,71,30.23,10.0,Calm,Calm,-,N/A,,Clear,0,2013-06-11 15:53:00
8:28 AM,50.0,39.2,66,30.21,10.0,Calm,Calm,-,N/A,,Mostly Cloudy,0,2013-06-11 16:28:00
8:53 AM,52.0,37.9,59,30.22,10.0,Calm,Calm,-,N/A,,Partly Cloudy,0,2013-06-11 16:53:00
9:53 AM,53.1,37.0,55,30.21,10.0,Calm,Calm,-,N/A,,Scattered Clouds,0,2013-06-11 17:53:00
10:53 AM,52.0,34.0,50,30.20,10.0,NNE,10.4,-,N/A,,Mostly Cloudy,20,2013-06-11 18:53:00
11:53 AM,50.0,39.0,66,30.22,10.0,Variable,5.8,-,0.00,Rain,Light Rain,0,2013-06-11 19:53:00
12:53 PM,46.0,39.9,79,30.22,6.0,Variable,4.6,-,0.02,Rain,Light Rain,0,2013-06-11 20:53:00
1:53 PM,55.9,39.0,53,30.19,10.0,Calm,Calm,-,0.01,,Clear,0,2013-06-11 21:53:00
2:53 PM,51.1,39.9,66,30.20,10.0,West,10.4,-,0.00,Rain,Light Rain,280,2013-06-11 22:53:00
3:53 PM,57.0,36.0,45,30.18,10.0,Calm,Calm,-,0.00,,Scattered Clouds,0,2013-06-11 23:53:00
4:53 PM,53.1,37.9,57,30.18,10.0,North,4.6,-,0.00,Rain,Light Rain,350,2013-06-12 00:53:00
5:53 PM,55.9,36.0,47,30.17,10.0,Calm,Calm,-,0.00,,Clear,0,2013-06-12 01:53:00
6:53 PM,59.0,37.0,44,30.15,10.0,NNE,5.8,-,N/A,,Clear,20,2013-06-12 02:53:00
7:53 PM,55.9,37.0,49,30.15,10.0,NNE,8.1,-,N/A,,Scattered Clouds,20,2013-06-12 03:53:00
8:53 PM,55.9,36.0,47,30.15,10.0,NW,5.8,-,N/A,,Mostly Cloudy,310,2013-06-12 04:53:00
9:53 PM,55.0,36.0,49,30.15,10.0,NW,6.9,-,N/A,,Scattered Clouds,320,2013-06-12 05:53:00
10:53 PM,48.0,37.0,66,30.16,10.0,Calm,Calm,-,N/A,,Clear,0,2013-06-12 06:53:00
11:53 PM,39.0,34.0,82,30.17,10.0,South,3.5,-,N/A,,Clear,180,2013-06-12 07:53:00